FENGYUN 1C DEB *, 47102

Orbit data source: Space-Track

FENGYUN 1C DEB *, 47102 is space debris in SSO originally from a launch on Mon, 10 May 1999 UTC launched from the Taiyaun Space Center, China (TSC). Fengyun 1C debris stems from the Chinese weather satellite Fengyun-1C, which was intentionally destroyed by a Chinese anti-satellite missile in 2007. This event dramatically increased the amount of space debris, with thousands of trackable fragments posing hazards to satellites and human spaceflight. The Fengyun 1C debris cloud has become a focal point in discussions about space sustainability and the need for international regulations to prevent the creation of new debris.

Loading next visibility...
Identifier
47102, 1999-025FCA
Orbit
SSO
Country
Flag of CNCN / PRC
Related business
Manufacturer
Unknown
Mission
Spacecraft
Bus & Motor
Unknown
Mass
Unknown
Launch date (UTC)
1999-05-10 (27 years ago)
Launch vehicle
Unknown
Launch site
Taiyaun Space Center, China (TSC)
Object type
Payload
Rocket body
Debris
Shape & HBR
Unknown shape, 0.1 m
Radar Cross Section
Small (<0.1 m²)

Expand to show TLE details & history
Last TLE update: 2 days ago

TLE from 2 days ago
0 FENGYUN 1C DEB *
1 47102U 99025FCA 26171.30253551  .00001159  00000-0  54941-3 0  9992
2 47102  98.4459 105.5807 0114334 224.1615 288.8645 14.18012135646269
Epoch: 2026-06-20T07:15Z
TLE epoch observation values (Epoch: 2026-06-20T07:15:39.068Z)
Latitude
27.92949°
Longitude
-87.36038°
Altitude
809.706 km
Speed
7.464 km/s
True Right ascension
19h 20m 17s
True Declination
27° 47' 18"
Sunlit
Object was in full shadow at epoch
Visualization orbit readout
Latitude
Unknown
Longitude
Unknown
Altitude
Unknown
Speed
Unknown
Apparent Right ascension
Unknown
Apparent Declination
Unknown
Sunlit
N/A
Visualization observer readout
Local Sidereal Time
23:19:52
Azimuth
Unknown
Elevation
Unknown
Doppler factor
Unknown
Orbital elements
Apogee altitude
911.636 km
Perigee altitude
746.827 km
Semi-major axis
7,207.369 km
Eccentricity
0.01143
Inclination
98.4459°
RAAN
105.5807°
Arg. of periapsis
224.1615°
True anomaly
287.61905°
Mean anomaly
288.8645°
Eccentric anomaly
288.24234°
Mean motion
3.54714 °/min
Orbital period
101.49 mins
BSTAR
0.00054941
Loading maneuver chart data...
Computing Atmospheric mass density...

Documentation

Showing up to 5 results
|